OS103 LOWW-LOWI

Flight info

Callsign OS103
Flight time 0h 41m
Altitude 30000
Route SOVIL DCT SITNI DCT BAGSI DCT NANIT NANIT2A
Aircraft A320/M-SDE3FGHIRWY/LB1

Departure

Time 2026-04-22 10:12
Airport Vienna International Airport (LOWW)

Arrival

Time 2026-04-22 10:53
Airport Innsbruck Airport (LOWI)
Time Latitude Longitude Altitude Speed Heading
2026-04-22 09:50 48.11443 16.57070 609 ft 0 kts 205°
2026-04-22 10:03 48.11456 16.57080 609 ft 4 kts 208°
2026-04-22 10:03 48.11480 16.57101 619 ft 4 kts 217°
2026-04-22 10:04 48.11498 16.57128 616 ft 4 kts 243°
2026-04-22 10:04 48.11502 16.57155 609 ft 1 kts 296°
2026-04-22 10:04 48.11502 16.57156 615 ft 0 kts 296°
2026-04-22 10:06 48.11505 16.57147 621 ft 3 kts 296°
2026-04-22 10:06 48.11515 16.57117 615 ft 5 kts 296°
2026-04-22 10:06 48.11536 16.57051 614 ft 9 kts 296°
2026-04-22 10:07 48.11554 16.56948 609 ft 10 kts 256°
2026-04-22 10:07 48.11502 16.56895 609 ft 9 kts 202°
2026-04-22 10:07 48.11449 16.56873 609 ft 7 kts 175°
2026-04-22 10:07 48.11418 16.56914 609 ft 6 kts 109°
2026-04-22 10:08 48.11405 16.56962 614 ft 4 kts 112°
2026-04-22 10:08 48.11387 16.57024 609 ft 10 kts 112°
2026-04-22 10:08 48.11340 16.57065 615 ft 8 kts 194°
2026-04-22 10:08 48.11291 16.57057 615 ft 7 kts 158°
2026-04-22 10:09 48.11242 16.57175 617 ft 18 kts 116°
2026-04-22 10:09 48.11185 16.57345 609 ft 19 kts 116°
2026-04-22 10:09 48.11127 16.57520 622 ft 16 kts 117°
2026-04-22 10:09 48.11072 16.57519 609 ft 6 kts 210°
2026-04-22 10:10 48.11037 16.57490 616 ft 5 kts 207°
2026-04-22 10:10 48.11007 16.57468 614 ft 4 kts 207°
2026-04-22 10:10 48.10983 16.57450 617 ft 3 kts 207°
2026-04-22 10:10 48.10962 16.57428 609 ft 5 kts 236°
2026-04-22 10:11 48.10985 16.57316 609 ft 32 kts 300°
2026-04-22 10:11 48.11201 16.56667 609 ft 103 kts 296°
2026-04-22 10:11 48.11602 16.55437 613 ft 157 kts 296°
2026-04-22 10:11 48.12108 16.53822 906 ft 179 kts 289°
2026-04-22 10:12 48.12039 16.51970 1594 ft 186 kts 248°
2026-04-22 10:12 48.11417 16.50261 2327 ft 186 kts 243°
2026-04-22 10:12 48.10774 16.48542 2792 ft 198 kts 245°
2026-04-22 10:12 48.10081 16.46623 3036 ft 227 kts 245°
2026-04-22 10:13 48.09222 16.44485 3482 ft 253 kts 238°
2026-04-22 10:13 48.08173 16.42287 4215 ft 264 kts 236°
2026-04-22 10:13 48.07064 16.40065 5101 ft 269 kts 236°
2026-04-22 10:13 48.05930 16.37813 5982 ft 273 kts 236°
2026-04-22 10:14 48.04782 16.35527 6862 ft 278 kts 236°
2026-04-22 10:14 48.03818 16.33025 7686 ft 279 kts 251°
2026-04-22 10:14 48.03354 16.30219 8502 ft 280 kts 268°
2026-04-22 10:14 48.03353 16.27313 9294 ft 282 kts 275°
2026-04-22 10:15 48.03412 16.24362 10075 ft 286 kts 275°
2026-04-22 10:15 48.03473 16.21302 10465 ft 307 kts 275°
2026-04-22 10:15 48.03538 16.18038 10699 ft 330 kts 274°
2026-04-22 10:15 48.03605 16.14503 10970 ft 350 kts 274°
2026-04-22 10:16 48.03669 16.10809 11526 ft 359 kts 274°
2026-04-22 10:16 48.03729 16.07061 12196 ft 364 kts 274°
2026-04-22 10:16 48.03787 16.03252 12867 ft 369 kts 274°
2026-04-22 10:16 48.03843 15.99399 13539 ft 373 kts 274°
2026-04-22 10:17 48.03899 15.95508 14176 ft 376 kts 274°
2026-04-22 10:17 48.03955 15.91580 14817 ft 380 kts 274°
2026-04-22 10:17 48.04013 15.87616 15453 ft 383 kts 274°
2026-04-22 10:17 48.04072 15.83613 16065 ft 387 kts 274°
2026-04-22 10:18 48.04131 15.79584 16651 ft 390 kts 274°
2026-04-22 10:18 48.04188 15.75515 17235 ft 393 kts 274°
2026-04-22 10:18 48.04243 15.71408 17805 ft 397 kts 274°
2026-04-22 10:18 48.04295 15.67268 18385 ft 400 kts 274°
2026-04-22 10:19 48.04349 15.63092 18953 ft 403 kts 274°
2026-04-22 10:19 48.04402 15.58939 19474 ft 408 kts 274°
2026-04-22 10:19 48.04456 15.54684 19997 ft 412 kts 274°
2026-04-22 10:19 48.04509 15.50389 20498 ft 415 kts 274°
2026-04-22 10:20 48.04560 15.46060 20986 ft 419 kts 274°
2026-04-22 10:20 48.04605 15.41690 21447 ft 422 kts 273°
2026-04-22 10:20 48.04649 15.37284 21903 ft 426 kts 273°
2026-04-22 10:20 48.04702 15.32843 22335 ft 429 kts 274°
2026-04-22 10:21 48.04771 15.28371 22762 ft 432 kts 274°
2026-04-22 10:21 48.04848 15.23866 23166 ft 435 kts 274°
2026-04-22 10:21 48.04927 15.19340 23573 ft 438 kts 274°
2026-04-22 10:21 48.05003 15.14773 23957 ft 440 kts 274°
2026-04-22 10:22 48.05075 15.10174 24299 ft 444 kts 274°
2026-04-22 10:22 48.05142 15.05616 24669 ft 446 kts 274°
2026-04-22 10:22 48.05207 15.00963 25034 ft 449 kts 274°
2026-04-22 10:22 48.05270 14.96300 25394 ft 451 kts 274°
2026-04-22 10:23 48.05330 14.91599 25741 ft 453 kts 274°
2026-04-22 10:23 48.05386 14.86885 26094 ft 455 kts 274°
2026-04-22 10:23 48.05441 14.82151 26423 ft 457 kts 274°
2026-04-22 10:23 48.05491 14.77393 26731 ft 459 kts 274°
2026-04-22 10:24 48.05534 14.72619 27036 ft 461 kts 273°
2026-04-22 10:24 48.05568 14.67854 27332 ft 462 kts 273°
2026-04-22 10:24 48.05597 14.63039 27615 ft 464 kts 273°
2026-04-22 10:24 48.05626 14.58267 27890 ft 466 kts 273°
2026-04-22 10:25 48.05657 14.53428 28154 ft 467 kts 273°
2026-04-22 10:25 48.05687 14.48560 28414 ft 468 kts 273°
2026-04-22 10:25 48.05713 14.43683 28670 ft 470 kts 273°
2026-04-22 10:25 48.05738 14.38802 28912 ft 471 kts 273°
2026-04-22 10:26 48.05675 14.33894 29135 ft 474 kts 268°
2026-04-22 10:26 48.05157 14.29025 29433 ft 476 kts 258°
2026-04-22 10:26 48.04160 14.24302 29752 ft 477 kts 250°
2026-04-22 10:26 48.02755 14.19808 30047 ft 478 kts 245°
2026-04-22 10:27 48.01282 14.15356 30248 ft 478 kts 245°
2026-04-22 10:27 47.99816 14.10924 30296 ft 475 kts 245°
2026-04-22 10:27 47.96911 14.02172 30292 ft 473 kts 245°
2026-04-22 10:28 47.93981 13.93381 30293 ft 473 kts 245°
2026-04-22 10:28 47.91046 13.84613 30294 ft 473 kts 245°
2026-04-22 10:29 47.88104 13.75852 30282 ft 472 kts 245°
2026-04-22 10:29 47.85156 13.67104 30282 ft 472 kts 245°
2026-04-22 10:30 47.82217 13.58436 30283 ft 472 kts 245°
2026-04-22 10:30 47.79261 13.49723 30284 ft 472 kts 245°
2026-04-22 10:31 47.76308 13.41012 30283 ft 471 kts 245°
2026-04-22 10:31 47.73347 13.32328 30286 ft 471 kts 245°
2026-04-22 10:32 47.70386 13.23665 30286 ft 470 kts 245°
2026-04-22 10:32 47.67410 13.15015 30118 ft 470 kts 245°
2026-04-22 10:33 47.65917 13.10690 28987 ft 474 kts 245°
2026-04-22 10:33 47.64405 13.06309 27701 ft 477 kts 245°
2026-04-22 10:33 47.62901 13.01968 26439 ft 469 kts 245°
2026-04-22 10:33 47.61920 12.99136 25697 ft 463 kts 245°
2026-04-22 10:34 47.60476 12.94973 24933 ft 447 kts 245°
2026-04-22 10:34 47.59073 12.90938 24181 ft 439 kts 245°
2026-04-22 10:34 47.57674 12.86914 23431 ft 440 kts 245°
2026-04-22 10:34 47.55816 12.81576 22480 ft 440 kts 244°
2026-04-22 10:35 47.54416 12.77568 21795 ft 438 kts 244°
2026-04-22 10:35 47.53018 12.73582 21118 ft 436 kts 244°
2026-04-22 10:35 47.52078 12.70895 20677 ft 434 kts 244°
2026-04-22 10:35 47.50707 12.66982 20015 ft 433 kts 244°
2026-04-22 10:36 47.49328 12.63051 19384 ft 429 kts 245°
2026-04-22 10:36 47.47956 12.59145 18785 ft 426 kts 244°
2026-04-22 10:36 47.46594 12.55284 18203 ft 422 kts 244°
2026-04-22 10:36 47.45239 12.51444 17633 ft 419 kts 244°
2026-04-22 10:37 47.43898 12.47646 17081 ft 416 kts 244°
2026-04-22 10:37 47.41264 12.40141 16022 ft 407 kts 247°
2026-04-22 10:37 47.40305 12.36238 15469 ft 402 kts 258°
2026-04-22 10:38 47.39854 12.32202 14796 ft 399 kts 268°
2026-04-22 10:38 47.39910 12.28138 13735 ft 406 kts 279°
2026-04-22 10:38 47.40306 12.24002 12810 ft 402 kts 281°
2026-04-22 10:38 47.40686 12.20017 12373 ft 378 kts 280°
2026-04-22 10:39 47.41028 12.16326 12232 ft 349 kts 280°
2026-04-22 10:39 47.41342 12.12906 12104 ft 323 kts 280°
2026-04-22 10:39 47.41637 12.09698 11736 ft 309 kts 281°
2026-04-22 10:39 47.41928 12.06580 11157 ft 304 kts 280°
2026-04-22 10:40 47.42211 12.03514 10582 ft 298 kts 280°
2026-04-22 10:40 47.42479 12.00570 10373 ft 280 kts 279°
2026-04-22 10:40 47.42729 11.97851 10240 ft 262 kts 279°
2026-04-22 10:40 47.42939 11.95212 9811 ft 261 kts 275°
2026-04-22 10:41 47.42924 11.92544 9396 ft 254 kts 265°
2026-04-22 10:41 47.42691 11.90005 9343 ft 250 kts 262°
2026-04-22 10:41 47.42431 11.87459 9288 ft 251 kts 262°
2026-04-22 10:41 47.42179 11.84912 9233 ft 250 kts 262°
2026-04-22 10:42 47.41924 11.82370 9178 ft 250 kts 262°
2026-04-22 10:42 47.41667 11.79836 9129 ft 249 kts 262°
2026-04-22 10:42 47.41409 11.77299 8948 ft 253 kts 262°
2026-04-22 10:42 47.41142 11.74663 8020 ft 268 kts 262°
2026-04-22 10:43 47.40863 11.71901 6966 ft 284 kts 262°
2026-04-22 10:43 47.40579 11.69119 7058 ft 237 kts 262°
2026-04-22 10:43 47.40335 11.66739 7949 ft 241 kts 261°
2026-04-22 10:43 47.40094 11.64292 8153 ft 240 kts 263°
2026-04-22 10:44 47.39938 11.61845 8452 ft 241 kts 264°
2026-04-22 10:44 47.39809 11.59404 8788 ft 237 kts 265°
2026-04-22 10:44 47.39659 11.56932 9421 ft 246 kts 265°
2026-04-22 10:44 47.39444 11.54375 9478 ft 251 kts 261°
2026-04-22 10:45 47.39107 11.51856 9490 ft 251 kts 258°
2026-04-22 10:45 47.38746 11.49343 9477 ft 250 kts 258°
2026-04-22 10:45 47.38411 11.46884 9342 ft 242 kts 259°
2026-04-22 10:45 47.38111 11.44510 9171 ft 230 kts 261°
2026-04-22 10:46 47.37829 11.42128 8388 ft 244 kts 259°
2026-04-22 10:46 47.37542 11.39589 7587 ft 256 kts 261°
2026-04-22 10:46 47.37349 11.36979 6877 ft 255 kts 270°
2026-04-22 10:46 47.37456 11.34381 6132 ft 253 kts 277°
2026-04-22 10:47 47.37717 11.31827 5460 ft 248 kts 279°
2026-04-22 10:47 47.38072 11.29444 5184 ft 229 kts 283°
2026-04-22 10:47 47.38469 11.27150 4342 ft 236 kts 281°
2026-04-22 10:47 47.38447 11.24898 4511 ft 213 kts 249°
2026-04-22 10:48 47.37655 11.23093 4686 ft 210 kts 225°
2026-04-22 10:48 47.36606 11.21630 5089 ft 206 kts 220°
2026-04-22 10:48 47.35533 11.20221 5661 ft 207 kts 222°
2026-04-22 10:48 47.34487 11.18800 6212 ft 210 kts 223°
2026-04-22 10:49 47.33413 11.17287 6598 ft 216 kts 223°
2026-04-22 10:49 47.32343 11.15709 6573 ft 218 kts 218°
2026-04-22 10:49 47.31052 11.14603 6335 ft 213 kts 194°
2026-04-22 10:49 47.29609 11.14435 6199 ft 209 kts 161°
2026-04-22 10:50 47.28465 11.15678 5591 ft 216 kts 121°
2026-04-22 10:50 47.27866 11.17769 4969 ft 223 kts 105°
2026-04-22 10:50 47.27490 11.19945 4446 ft 216 kts 102°
2026-04-22 10:50 47.27142 11.22027 3978 ft 204 kts 106°
2026-04-22 10:51 47.26621 11.23956 3241 ft 200 kts 113°
2026-04-22 10:51 47.26028 11.25748 2725 ft 188 kts 116°
2026-04-22 10:51 47.25590 11.27376 2581 ft 161 kts 101°
2026-04-22 10:51 47.25520 11.28918 2461 ft 146 kts 89°
2026-04-22 10:52 47.25607 11.30379 2273 ft 141 kts 81°
2026-04-22 10:52 47.25743 11.31801 2129 ft 140 kts 81°
2026-04-22 10:52 47.25905 11.33305 1950 ft 151 kts 81°
2026-04-22 10:52 47.26043 11.34686 1906 ft 123 kts 83°
2026-04-22 10:53 47.26090 11.35247 1894 ft 10 kts 129°
2026-04-22 10:53 47.26027 11.35265 1898 ft 8 kts 175°
2026-04-22 10:53 47.25973 11.35274 1896 ft 7 kts 171°
2026-04-22 10:53 47.25931 11.35283 1900 ft 6 kts 171°
2026-04-22 10:54 47.25903 11.35269 1901 ft 4 kts 227°
2026-04-22 10:54 47.25896 11.35243 1894 ft 2 kts 258°
2026-04-22 10:54 47.25893 11.35227 1904 ft 1 kts 258°
2026-04-22 10:54 47.25892 11.35223 1904 ft 0 kts 246°
2026-04-22 10:55 47.25882 11.35220 1892 ft 9 kts 196°
2026-04-22 10:56 47.25837 11.35236 1904 ft 0 kts 169°